User: anonymous   Login
Location: Bamobli
(6.6379°N, 10.9396°W)
Time: 15:47:12
(UTC+00:00)
Language:

Cosmos 1689 Rocket - Orbit

View from above orbital plane
View from above orbital plane
View from above satellite
View from above satellite

Ground track
Ground track

The orbit data is extracted from the following two-line orbital elements,

1 16111U 85090B   21163.82247967  .00015645  00000-0  11498-3 0  9997
2 16111  97.4757   6.5951 0008582  13.2987 346.8501 15.73150880971495
Epoch (UTC): 12 June 2021 19:44:22
Eccentricity: 0.0008582
inclination: 97.4757°
perigee height: 344 km
apogee height: 355 km
right ascension of ascending node: 6.5951°
argument of perigee: 13.2987°
revolutions per day: 15.73150880
mean anomaly at epoch: 346.8501°
orbit number at epoch: 97149

The dashed part of the orbit path shows where the satellite is in the earth's shadow,  

DLR